Time,TemperatureF,DewpointF,PressureIn,WindDirection,WindDirectionDegrees,WindSpeedMPH,WindSpeedGustMPH,Humidity,HourlyPrecipIn,Conditions,Clouds,dailyrainin,SoftwareType,DateUTC
2013-03-05 00:00:00,61.5,53.1,29.99,SSW,213,0.0,0.0,74,0.00,,,0.00,Wunderground v.1.15,2013-03-05 06:00:00,
2013-03-05 00:10:00,61.6,53.2,29.99,SSW,212,0.0,0.0,74,0.00,,,0.00,Wunderground v.1.15,2013-03-05 06:10:00,
2013-03-05 00:15:00,61.6,53.2,29.99,SW,226,0.0,0.0,74,0.00,,,0.00,Wunderground v.1.15,2013-03-05 06:15:00,
2013-03-05 00:25:00,61.8,53.4,29.99,SSW,202,0.0,0.0,74,0.00,,,0.00,Wunderground v.1.15,2013-03-05 06:25:00,
2013-03-05 00:30:00,61.6,53.2,29.99,SW,230,0.0,0.0,74,0.00,,,0.00,Wunderground v.1.15,2013-03-05 06:30:00,
2013-03-05 00:40:00,61.6,53.2,29.99,West,263,0.0,0.0,74,0.00,,,0.00,Wunderground v.1.15,2013-03-05 06:40:00,
2013-03-05 00:45:00,61.6,53.2,29.99,SW,219,1.0,1.0,74,0.00,,,0.00,Wunderground v.1.15,2013-03-05 06:45:00,
2013-03-05 00:55:00,61.5,53.1,29.99,SW,222,0.0,1.0,74,0.00,,,0.00,Wunderground v.1.15,2013-03-05 06:55:00,
2013-03-05 01:00:00,61.5,53.1,29.99,WSW,247,0.0,0.0,74,0.00,,,0.00,Wunderground v.1.15,2013-03-05 07:00:00,
2013-03-05 01:10:00,61.6,53.2,29.99,SW,236,0.0,0.0,74,0.00,,,0.00,Wunderground v.1.15,2013-03-05 07:10:00,
2013-03-05 01:15:00,61.6,53.2,29.99,SW,229,0.0,0.0,74,0.00,,,0.00,Wunderground v.1.15,2013-03-05 07:15:00,
2013-03-05 01:25:00,61.8,53.4,29.99,West,261,0.0,0.0,74,0.00,,,0.00,Wunderground v.1.15,2013-03-05 07:25:00,
2013-03-05 01:30:00,62.0,53.6,30.00,WSW,248,0.0,0.0,74,0.00,,,0.00,Wunderground v.1.15,2013-03-05 07:30:00,
2013-03-05 01:40:00,62.1,53.3,30.00,WSW,246,1.0,1.0,73,0.00,,,0.00,Wunderground v.1.15,2013-03-05 07:40:00,
2013-03-05 01:45:00,62.1,53.3,29.99,SW,232,0.0,1.0,73,0.00,,,0.00,Wunderground v.1.15,2013-03-05 07:45:00,
2013-03-05 01:55:00,62.1,53.3,29.99,SW,232,0.0,0.0,73,0.00,,,0.00,Wunderground v.1.15,2013-03-05 07:55:00,
2013-03-05 02:00:00,62.0,53.2,29.99,SW,232,0.0,0.0,73,0.00,,,0.00,Wunderground v.1.15,2013-03-05 08:00:00,
2013-03-05 02:10:00,62.0,53.2,29.99,WSW,256,0.0,0.0,73,0.00,,,0.00,Wunderground v.1.15,2013-03-05 08:10:00,
2013-03-05 02:15:00,62.1,53.3,29.99,WSW,253,0.0,6.0,73,0.00,,,0.00,Wunderground v.1.15,2013-03-05 08:15:00,
2013-03-05 02:25:00,62.3,53.5,29.99,WSW,240,1.0,1.0,73,0.00,,,0.00,Wunderground v.1.15,2013-03-05 08:25:00,
2013-03-05 02:30:00,62.4,53.6,29.99,WSW,237,0.0,0.0,73,0.00,,,0.00,Wunderground v.1.15,2013-03-05 08:30:00,
2013-03-05 02:40:00,62.4,53.6,29.99,SW,222,0.0,0.0,73,0.00,,,0.00,Wunderground v.1.15,2013-03-05 08:40:00,
2013-03-05 02:45:00,62.6,53.4,29.98,SSW,199,1.0,1.0,72,0.00,,,0.00,Wunderground v.1.15,2013-03-05 08:45:00,
2013-03-05 02:55:00,62.6,53.4,29.98,SSW,198,0.0,1.0,72,0.00,,,0.00,Wunderground v.1.15,2013-03-05 08:55:00,
2013-03-05 03:00:00,62.4,53.6,29.99,WSW,246,0.0,0.0,73,0.00,,,0.00,Wunderground v.1.15,2013-03-05 09:00:00,
2013-03-05 03:10:00,62.4,53.6,29.99,SW,229,0.0,0.0,73,0.00,,,0.00,Wunderground v.1.15,2013-03-05 09:10:00,
2013-03-05 03:15:00,62.4,54.0,29.98,SW,217,0.0,0.0,74,0.00,,,0.00,Wunderground v.1.15,2013-03-05 09:15:00,
2013-03-05 03:25:00,62.3,53.9,29.98,WSW,246,0.0,0.0,74,0.00,,,0.00,Wunderground v.1.15,2013-03-05 09:25:00,
2013-03-05 03:30:00,62.3,54.3,29.99,WSW,244,0.0,0.0,75,0.00,,,0.00,Wunderground v.1.15,2013-03-05 09:30:00,
2013-03-05 03:40:00,62.1,54.1,29.99,WSW,243,0.0,0.0,75,0.00,,,0.00,Wunderground v.1.15,2013-03-05 09:40:00,
2013-03-05 03:45:00,62.1,54.4,29.99,WSW,250,0.0,0.0,76,0.00,,,0.00,Wunderground v.1.15,2013-03-05 09:45:00,
2013-03-05 03:55:00,62.0,54.3,29.99,WSW,243,0.0,0.0,76,0.00,,,0.00,Wunderground v.1.15,2013-03-05 09:55:00,
2013-03-05 04:00:00,62.0,54.7,30.00,WSW,247,0.0,0.0,77,0.00,,,0.00,Wunderground v.1.15,2013-03-05 10:00:00,
2013-03-05 04:10:00,62.0,55.1,30.00,SSW,209,0.0,0.0,78,0.00,,,0.00,Wunderground v.1.15,2013-03-05 10:10:00,
2013-03-05 04:15:00,61.8,55.2,30.00,West,271,0.0,0.0,79,0.00,,,0.00,Wunderground v.1.15,2013-03-05 10:15:00,
2013-03-05 04:25:00,61.8,55.2,30.00,WSW,248,0.0,0.0,79,0.00,,,0.00,Wunderground v.1.15,2013-03-05 10:25:00,
2013-03-05 04:30:00,61.8,55.2,30.00,West,260,0.0,0.0,79,0.00,,,0.00,Wunderground v.1.15,2013-03-05 10:30:00,
2013-03-05 04:39:00,61.6,55.0,30.00,WSW,239,0.0,0.0,79,0.00,,,0.00,Wunderground v.1.15,2013-03-05 10:39:00,
2013-03-05 04:45:00,61.6,55.0,30.01,WSW,241,0.0,0.0,79,0.00,,,0.00,Wunderground v.1.15,2013-03-05 10:45:00,
2013-03-05 04:55:00,61.6,55.0,30.01,WSW,241,0.0,0.0,79,0.00,,,0.00,Wunderground v.1.15,2013-03-05 10:55:00,
2013-03-05 05:00:00,61.5,55.3,30.01,SW,234,0.0,0.0,80,0.00,,,0.00,Wunderground v.1.15,2013-03-05 11:00:00,
2013-03-05 05:10:00,61.3,55.1,30.01,WSW,244,0.0,0.0,80,0.00,,,0.00,Wunderground v.1.15,2013-03-05 11:10:00,
2013-03-05 05:15:00,61.2,55.0,30.01,WSW,243,0.0,0.0,80,0.00,,,0.00,Wunderground v.1.15,2013-03-05 11:15:00,
2013-03-05 05:25:00,60.9,55.0,30.01,SW,224,0.0,0.0,81,0.00,,,0.00,Wunderground v.1.15,2013-03-05 11:25:00,
2013-03-05 05:30:00,60.7,55.2,30.01,SW,226,0.0,0.0,82,0.00,,,0.00,Wunderground v.1.15,2013-03-05 11:30:00,
2013-03-05 05:40:00,60.5,55.0,30.01,SW,227,0.0,0.0,82,0.00,,,0.00,Wunderground v.1.15,2013-03-05 11:40:00,
2013-03-05 05:45:00,60.5,55.0,30.01,SSW,196,0.0,0.0,82,0.00,,,0.00,Wunderground v.1.15,2013-03-05 11:45:00,
2013-03-05 05:55:00,60.7,55.2,30.01,WSW,240,0.0,0.0,82,0.00,,,0.00,Wunderground v.1.15,2013-03-05 11:55:00,
2013-03-05 06:00:00,60.7,55.2,30.01,WSW,240,0.0,0.0,82,0.00,,,0.00,Wunderground v.1.15,2013-03-05 12:00:00,
2013-03-05 06:10:00,60.4,55.2,30.01,WSW,241,0.0,0.0,83,0.00,,,0.00,Wunderground v.1.15,2013-03-05 12:10:00,
2013-03-05 06:15:00,60.4,55.2,30.00,SW,236,0.0,0.0,83,0.00,,,0.00,Wunderground v.1.15,2013-03-05 12:15:00,
2013-03-05 06:25:00,60.2,55.3,30.00,SSW,199,0.0,0.0,84,0.00,,,0.00,Wunderground v.1.15,2013-03-05 12:25:00,
2013-03-05 06:30:00,60.2,55.3,30.01,SSW,209,0.0,0.0,84,0.00,,,0.00,Wunderground v.1.15,2013-03-05 12:30:00,
2013-03-05 06:40:00,60.1,55.6,30.01,SSW,213,0.0,0.0,85,0.00,,,0.00,Wunderground v.1.15,2013-03-05 12:40:00,
2013-03-05 06:45:00,60.1,55.6,30.01,SW,215,0.0,0.0,85,0.00,,,0.00,Wunderground v.1.15,2013-03-05 12:45:00,
2013-03-05 06:55:00,60.2,55.7,30.01,SW,215,0.0,0.0,85,0.00,,,0.00,Wunderground v.1.15,2013-03-05 12:55:00,
2013-03-05 07:00:00,60.4,55.9,30.01,SSW,210,0.0,0.0,85,0.00,,,0.00,Wunderground v.1.15,2013-03-05 13:00:00,
2013-03-05 07:10:00,60.7,56.2,30.01,SW,226,0.0,0.0,85,0.00,,,0.00,Wunderground v.1.15,2013-03-05 13:10:00,
2013-03-05 07:15:00,60.9,56.4,30.01,SW,230,0.0,0.0,85,0.00,,,0.00,Wunderground v.1.15,2013-03-05 13:15:00,
2013-03-05 07:25:00,61.2,56.7,30.01,SSW,202,0.0,0.0,85,0.00,,,0.00,Wunderground v.1.15,2013-03-05 13:25:00,
2013-03-05 07:30:00,61.5,56.6,30.01,SSW,212,0.0,0.0,84,0.00,,,0.00,Wunderground v.1.15,2013-03-05 13:30:00,
2013-03-05 07:40:00,62.0,56.8,30.01,SSW,202,0.0,0.0,83,0.00,,,0.00,Wunderground v.1.15,2013-03-05 13:40:00,
2013-03-05 07:45:00,62.1,56.9,30.03,WSW,248,0.0,0.0,83,0.00,,,0.00,Wunderground v.1.15,2013-03-05 13:45:00,
2013-03-05 07:55:00,62.6,57.0,30.03,West,272,0.0,0.0,82,0.00,,,0.00,Wunderground v.1.15,2013-03-05 13:55:00,
2013-03-05 08:00:00,62.7,57.1,30.07,WNW,287,0.0,0.0,82,0.00,,,0.00,Wunderground v.1.15,2013-03-05 14:00:00,
2013-03-05 08:10:00,62.9,57.3,30.07,NW,308,0.0,0.0,82,0.00,,,0.00,Wunderground v.1.15,2013-03-05 14:10:00,
2013-03-05 08:15:00,63.2,57.6,30.08,West,270,0.0,0.0,82,0.00,,,0.00,Wunderground v.1.15,2013-03-05 14:15:00,
2013-03-05 08:25:00,63.7,57.8,30.08,WNW,285,0.0,0.0,81,0.00,,,0.00,Wunderground v.1.15,2013-03-05 14:25:00,
2013-03-05 08:30:00,64.0,57.7,30.07,WSW,243,0.0,0.0,80,0.00,,,0.00,Wunderground v.1.15,2013-03-05 14:30:00,
2013-03-05 08:40:00,64.5,57.5,30.07,WSW,247,2.0,2.0,78,0.00,,,0.00,Wunderground v.1.15,2013-03-05 14:40:00,
2013-03-05 08:45:00,64.8,57.4,30.07,WNW,288,1.0,2.0,77,0.00,,,0.00,Wunderground v.1.15,2013-03-05 14:45:00,
2013-03-05 08:55:00,65.2,57.4,30.07,WSW,239,0.0,0.0,76,0.00,,,0.00,Wunderground v.1.15,2013-03-05 14:55:00,
2013-03-05 09:00:00,65.3,57.5,30.07,WSW,256,0.0,0.0,76,0.00,,,0.00,Wunderground v.1.15,2013-03-05 15:00:00,
2013-03-05 09:10:00,65.6,57.5,30.07,West,265,0.0,0.0,75,0.00,,,0.00,Wunderground v.1.15,2013-03-05 15:10:00,
2013-03-05 09:15:00,66.1,57.9,30.07,WNW,296,0.0,0.0,75,0.00,,,0.00,Wunderground v.1.15,2013-03-05 15:15:00,
2013-03-05 09:25:00,66.4,58.2,30.07,SW,234,3.0,3.0,75,0.00,,,0.00,Wunderground v.1.15,2013-03-05 15:25:00,
2013-03-05 09:30:00,66.6,58.4,30.06,WSW,258,2.0,2.0,75,0.00,,,0.00,Wunderground v.1.15,2013-03-05 15:30:00,
2013-03-05 09:40:00,67.4,58.4,30.06,SSW,195,0.0,6.0,73,0.00,,,0.00,Wunderground v.1.15,2013-03-05 15:40:00,
2013-03-05 09:45:00,67.9,58.5,30.06,West,264,3.0,6.0,72,0.00,,,0.00,Wunderground v.1.15,2013-03-05 15:45:00,
2013-03-05 09:55:00,68.8,59.0,30.06,SW,215,1.0,3.0,71,0.00,,,0.00,Wunderground v.1.15,2013-03-05 15:55:00,
2013-03-05 10:00:00,68.8,58.6,30.05,SW,219,4.0,8.0,70,0.00,,,0.00,Wunderground v.1.15,2013-03-05 16:00:00,
2013-03-05 10:10:00,69.1,58.9,30.05,SSW,208,4.0,4.0,70,0.00,,,0.00,Wunderground v.1.15,2013-03-05 16:10:00,
2013-03-05 10:15:00,69.4,58.4,30.05,SW,217,5.0,15.0,68,0.00,,,0.00,Wunderground v.1.15,2013-03-05 16:15:00,
2013-03-05 10:25:00,70.4,59.3,30.05,SW,223,5.0,10.0,68,0.00,,,0.00,Wunderground v.1.15,2013-03-05 16:25:00,
2013-03-05 10:30:00,70.8,58.4,30.05,SSW,203,5.0,8.0,65,0.00,,,0.00,Wunderground v.1.15,2013-03-05 16:30:00,
2013-03-05 10:40:00,70.6,58.7,30.05,West,272,9.0,9.0,66,0.00,,,0.00,Wunderground v.1.15,2013-03-05 16:40:00,
2013-03-05 10:45:00,70.8,58.9,30.04,WSW,243,5.0,9.0,66,0.00,,,0.00,Wunderground v.1.15,2013-03-05 16:45:00,
2013-03-05 10:55:00,71.1,58.3,30.04,WSW,256,9.0,11.0,64,0.00,,,0.00,Wunderground v.1.15,2013-03-05 16:55:00,
2013-03-05 11:00:00,71.3,58.9,30.03,WSW,248,10.0,11.0,65,0.00,,,0.00,Wunderground v.1.15,2013-03-05 17:00:00,
2013-03-05 11:10:00,72.5,59.2,30.03,SW,215,8.0,14.0,63,0.00,,,0.00,Wunderground v.1.15,2013-03-05 17:10:00,
2013-03-05 11:15:00,72.1,58.8,30.02,WSW,240,9.0,14.0,63,0.00,,,0.00,Wunderground v.1.15,2013-03-05 17:15:00,
2013-03-05 11:25:00,71.5,59.1,30.02,West,275,9.0,13.0,65,0.00,,,0.00,Wunderground v.1.15,2013-03-05 17:25:00,
2013-03-05 11:30:00,71.8,59.0,30.02,WSW,251,6.0,9.0,64,0.00,,,0.00,Wunderground v.1.15,2013-03-05 17:30:00,
2013-03-05 11:40:00,72.0,59.6,30.02,WSW,254,8.0,8.0,65,0.00,,,0.00,Wunderground v.1.15,2013-03-05 17:40:00,
2013-03-05 11:45:00,72.7,59.8,30.02,West,267,6.0,10.0,64,0.00,,,0.00,Wunderground v.1.15,2013-03-05 17:45:00,
2013-03-05 11:55:00,72.0,59.6,30.02,SW,217,10.0,10.0,65,0.00,,,0.00,Wunderground v.1.15,2013-03-05 17:55:00,
2013-03-05 12:00:00,72.5,60.1,30.01,WSW,244,7.0,10.0,65,0.00,,,0.00,Wunderground v.1.15,2013-03-05 18:00:00,
2013-03-05 12:10:00,71.5,60.0,30.01,SW,232,6.0,6.0,67,0.00,,,0.00,Wunderground v.1.15,2013-03-05 18:10:00,
2013-03-05 12:15:00,70.9,59.4,30.01,WSW,243,7.0,7.0,67,0.00,,,0.00,Wunderground v.1.15,2013-03-05 18:15:00,
2013-03-05 12:25:00,70.8,59.7,30.01,West,275,8.0,11.0,68,0.00,,,0.00,Wunderground v.1.15,2013-03-05 18:25:00,
2013-03-05 12:30:00,70.3,59.6,30.00,SW,223,8.0,8.0,69,0.00,,,0.00,Wunderground v.1.15,2013-03-05 18:30:00,
2013-03-05 12:40:00,70.4,59.7,30.00,SW,233,8.0,10.0,69,0.00,,,0.00,Wunderground v.1.15,2013-03-05 18:40:00,
2013-03-05 12:45:00,70.3,59.6,30.00,West,260,10.0,14.0,69,0.00,,,0.00,Wunderground v.1.15,2013-03-05 18:45:00,
2013-03-05 12:55:00,69.8,60.0,30.00,West,260,10.0,11.0,71,0.00,,,0.00,Wunderground v.1.15,2013-03-05 18:55:00,
2013-03-05 13:00:00,69.8,60.0,30.00,SW,227,9.0,9.0,71,0.00,,,0.00,Wunderground v.1.15,2013-03-05 19:00:00,
2013-03-05 13:10:00,69.6,60.2,30.00,West,281,4.0,4.0,72,0.00,,,0.00,Wunderground v.1.15,2013-03-05 19:10:00,
2013-03-05 13:15:00,69.3,59.9,30.00,WNW,285,6.0,9.0,72,0.00,,,0.00,Wunderground v.1.15,2013-03-05 19:15:00,
2013-03-05 13:25:00,69.1,59.7,30.00,WNW,282,8.0,8.0,72,0.00,,,0.00,Wunderground v.1.15,2013-03-05 19:25:00,
2013-03-05 13:30:00,69.4,60.0,29.98,West,275,8.0,8.0,72,0.00,,,0.00,Wunderground v.1.15,2013-03-05 19:30:00,
2013-03-05 13:40:00,70.4,60.5,29.98,SW,233,6.0,6.0,71,0.00,,,0.00,Wunderground v.1.15,2013-03-05 19:40:00,
2013-03-05 13:45:00,70.4,60.5,29.98,SSW,212,7.0,10.0,71,0.00,,,0.00,Wunderground v.1.15,2013-03-05 19:45:00,
2013-03-05 13:55:00,70.9,60.6,29.98,West,265,10.0,14.0,70,0.00,,,0.00,Wunderground v.1.15,2013-03-05 19:55:00,
2013-03-05 14:00:00,71.3,60.6,29.97,WSW,239,7.0,11.0,69,0.00,,,0.00,Wunderground v.1.15,2013-03-05 20:00:00,
2013-03-05 14:10:00,71.6,60.5,29.97,SW,229,9.0,9.0,68,0.00,,,0.00,Wunderground v.1.15,2013-03-05 20:10:00,
2013-03-05 14:15:00,71.8,61.1,29.96,SW,220,7.0,9.0,69,0.00,,,0.00,Wunderground v.1.15,2013-03-05 20:15:00,
2013-03-05 14:25:00,73.0,61.0,29.96,SW,226,2.0,5.0,66,0.00,,,0.00,Wunderground v.1.15,2013-03-05 20:25:00,
2013-03-05 14:30:00,73.3,61.3,29.96,SE,140,3.0,4.0,66,0.00,,,0.00,Wunderground v.1.15,2013-03-05 20:30:00,
2013-03-05 14:40:00,73.2,60.7,29.96,WSW,257,7.0,7.0,65,0.00,,,0.00,Wunderground v.1.15,2013-03-05 20:40:00,
2013-03-05 14:45:00,72.8,61.2,29.95,West,261,8.0,9.0,67,0.00,,,0.00,Wunderground v.1.15,2013-03-05 20:45:00,
2013-03-05 14:55:00,72.8,60.8,29.95,SSW,203,9.0,11.0,66,0.00,,,0.00,Wunderground v.1.15,2013-03-05 20:55:00,
2013-03-05 15:00:00,73.0,61.0,29.96,WSW,246,9.0,9.0,66,0.00,,,0.00,Wunderground v.1.15,2013-03-05 21:00:00,
2013-03-05 15:10:00,73.0,61.0,29.96,WSW,241,10.0,15.0,66,0.00,,,0.00,Wunderground v.1.15,2013-03-05 21:10:00,
2013-03-05 15:15:00,72.7,61.1,29.95,WSW,243,8.0,15.0,67,0.00,,,0.00,Wunderground v.1.15,2013-03-05 21:15:00,
2013-03-05 15:25:00,72.5,60.9,29.95,West,265,9.0,9.0,67,0.00,,,0.00,Wunderground v.1.15,2013-03-05 21:25:00,
2013-03-05 15:30:00,72.0,60.9,29.95,SW,216,8.0,9.0,68,0.00,,,0.00,Wunderground v.1.15,2013-03-05 21:30:00,
2013-03-05 15:40:00,71.1,60.8,29.95,SW,234,3.0,3.0,70,0.00,,,0.00,Wunderground v.1.15,2013-03-05 21:40:00,
2013-03-05 15:45:00,70.8,60.9,29.95,SSW,212,1.0,3.0,71,0.00,,,0.00,Wunderground v.1.15,2013-03-05 21:45:00,
2013-03-05 15:55:00,70.4,60.9,29.95,SW,229,0.0,0.0,72,0.00,,,0.00,Wunderground v.1.15,2013-03-05 21:55:00,
2013-03-05 16:00:00,70.4,60.9,29.95,SW,223,0.0,0.0,72,0.00,,,0.00,Wunderground v.1.15,2013-03-05 22:00:00,
2013-03-05 16:10:00,70.4,60.9,29.95,NW,312,2.0,2.0,72,0.00,,,0.00,Wunderground v.1.15,2013-03-05 22:10:00,
2013-03-05 16:15:00,70.4,60.9,29.96,WSW,253,0.0,2.0,72,0.00,,,0.00,Wunderground v.1.15,2013-03-05 22:15:00,
2013-03-05 16:25:00,70.4,60.9,29.96,WNW,288,0.0,0.0,72,0.00,,,0.00,Wunderground v.1.15,2013-03-05 22:25:00,
2013-03-05 16:30:00,70.4,60.9,29.96,WSW,250,0.0,0.0,72,0.00,,,0.00,Wunderground v.1.15,2013-03-05 22:30:00,
2013-03-05 16:40:00,70.6,58.3,29.96,NNW,329,0.0,0.0,65,0.00,,,0.00,Wunderground v.1.15,2013-03-05 22:40:00,
2013-03-05 16:45:00,71.5,57.8,29.97,NW,323,1.0,6.0,62,0.00,,,0.00,Wunderground v.1.15,2013-03-05 22:45:00,
2013-03-05 16:55:00,72.1,57.4,29.97,NW,319,3.0,4.0,60,0.00,,,0.00,Wunderground v.1.15,2013-03-05 22:55:00,
2013-03-05 17:00:00,72.1,57.0,29.98,North,0,0.0,8.0,59,0.00,,,0.00,Wunderground v.1.15,2013-03-05 23:00:00,
2013-03-05 17:10:00,71.5,56.9,29.98,NNW,333,8.0,8.0,60,0.00,,,0.00,Wunderground v.1.15,2013-03-05 23:10:00,
2013-03-05 17:15:00,70.9,57.2,29.99,NW,325,6.0,8.0,62,0.00,,,0.00,Wunderground v.1.15,2013-03-05 23:15:00,
2013-03-05 17:25:00,69.4,56.7,29.99,NW,320,7.0,7.0,64,0.00,,,0.00,Wunderground v.1.15,2013-03-05 23:25:00,
2013-03-05 17:30:00,68.9,56.2,30.00,NW,322,5.0,5.0,64,0.00,,,0.00,Wunderground v.1.15,2013-03-05 23:30:00,
2013-03-05 17:40:00,68.4,55.7,30.00,NNW,344,0.0,0.0,64,0.00,,,0.00,Wunderground v.1.15,2013-03-05 23:40:00,
2013-03-05 17:45:00,67.9,54.8,30.01,North,356,1.0,7.0,63,0.00,,,0.00,Wunderground v.1.15,2013-03-05 23:45:00,
2013-03-05 17:55:00,67.1,53.6,30.01,North,0,7.0,13.0,62,0.00,,,0.00,Wunderground v.1.15,2013-03-05 23:55:00,
2013-03-05 18:00:00,66.6,51.4,30.02,North,4,9.0,10.0,58,0.00,,,0.00,Wunderground v.1.15,2013-03-06 00:00:00,
2013-03-05 18:10:00,66.0,50.3,30.02,NNW,346,8.0,8.0,57,0.00,,,0.00,Wunderground v.1.15,2013-03-06 00:10:00,
2013-03-05 18:15:00,65.2,50.0,30.04,North,349,8.0,14.0,58,0.00,,,0.00,Wunderground v.1.15,2013-03-06 00:15:00,
2013-03-05 18:25:00,63.9,48.4,30.04,NNW,337,7.0,11.0,57,0.00,,,0.00,Wunderground v.1.15,2013-03-06 00:25:00,
2013-03-05 18:30:00,63.2,47.2,30.05,North,353,8.0,8.0,56,0.00,,,0.00,Wunderground v.1.15,2013-03-06 00:30:00,
2013-03-05 18:45:00,62.3,44.4,30.06,North,359,7.0,11.0,52,0.00,,,0.00,Wunderground v.1.15,2013-03-06 00:45:00,
2013-03-05 18:55:00,61.6,42.2,30.06,North,11,7.0,8.0,49,0.00,,,0.00,Wunderground v.1.15,2013-03-06 00:55:00,
2013-03-05 19:00:00,61.3,42.5,30.07,NNW,328,5.0,5.0,50,0.00,,,0.00,Wunderground v.1.15,2013-03-06 01:00:00,
2013-03-05 19:10:00,60.9,43.6,30.07,North,0,4.0,4.0,53,0.00,,,0.00,Wunderground v.1.15,2013-03-06 01:10:00,
2013-03-05 19:15:00,60.5,43.8,30.07,North,0,6.0,6.0,54,0.00,,,0.00,Wunderground v.1.15,2013-03-06 01:15:00,
2013-03-05 19:25:00,60.1,43.9,30.07,North,0,2.0,4.0,55,0.00,,,0.00,Wunderground v.1.15,2013-03-06 01:25:00,
2013-03-05 19:30:00,59.8,43.6,30.08,NW,326,3.0,8.0,55,0.00,,,0.00,Wunderground v.1.15,2013-03-06 01:30:00,
2013-03-05 19:40:00,59.5,41.9,30.08,North,0,5.0,8.0,52,0.00,,,0.00,Wunderground v.1.15,2013-03-06 01:40:00,
2013-03-05 19:45:00,59.2,42.1,30.08,North,7,6.0,8.0,53,0.00,,,0.00,Wunderground v.1.15,2013-03-06 01:45:00,
2013-03-05 19:55:00,58.7,42.6,30.08,North,0,4.0,10.0,55,0.00,,,0.00,Wunderground v.1.15,2013-03-06 01:55:00,
2013-03-05 20:00:00,58.4,42.3,30.09,North,359,6.0,6.0,55,0.00,,,0.00,Wunderground v.1.15,2013-03-06 02:00:00,
2013-03-05 20:10:00,57.8,42.2,30.09,North,359,2.0,10.0,56,0.00,,,0.00,Wunderground v.1.15,2013-03-06 02:10:00,
2013-03-05 20:15:00,57.5,42.4,30.10,North,0,5.0,10.0,57,0.00,,,0.00,Wunderground v.1.15,2013-03-06 02:15:00,
2013-03-05 20:25:00,56.9,42.3,30.10,North,0,4.0,7.0,58,0.00,,,0.00,Wunderground v.1.15,2013-03-06 02:25:00,
2013-03-05 20:30:00,56.5,41.4,30.11,North,0,2.0,2.0,57,0.00,,,0.00,Wunderground v.1.15,2013-03-06 02:30:00,
2013-03-05 20:40:00,55.7,40.2,30.11,North,359,3.0,3.0,56,0.00,,,0.00,Wunderground v.1.15,2013-03-06 02:40:00,
2013-03-05 20:45:00,55.4,40.4,30.12,North,0,4.0,4.0,57,0.00,,,0.00,Wunderground v.1.15,2013-03-06 02:45:00,
2013-03-05 20:55:00,55.0,39.1,30.12,North,0,0.0,1.0,55,0.00,,,0.00,Wunderground v.1.15,2013-03-06 02:55:00,
2013-03-05 21:00:00,54.7,38.8,30.13,North,0,0.0,0.0,55,0.00,,,0.00,Wunderground v.1.15,2013-03-06 03:00:00,
2013-03-05 21:10:00,54.2,38.4,30.13,North,0,0.0,0.0,55,0.00,,,0.00,Wunderground v.1.15,2013-03-06 03:10:00,
2013-03-05 21:15:00,53.9,38.1,30.14,North,0,0.0,0.0,55,0.00,,,0.00,Wunderground v.1.15,2013-03-06 03:15:00,
2013-03-05 21:25:00,53.5,38.2,30.14,North,0,0.0,0.0,56,0.00,,,0.00,Wunderground v.1.15,2013-03-06 03:25:00,
2013-03-05 21:30:00,53.3,38.4,30.15,North,357,0.0,0.0,57,0.00,,,0.00,Wunderground v.1.15,2013-03-06 03:30:00,
2013-03-05 21:40:00,52.9,38.5,30.15,North,354,0.0,0.0,58,0.00,,,0.00,Wunderground v.1.15,2013-03-06 03:40:00,
2013-03-05 21:45:00,52.6,38.7,30.15,North,357,0.0,0.0,59,0.00,,,0.00,Wunderground v.1.15,2013-03-06 03:45:00,
2013-03-05 21:55:00,52.2,39.1,30.15,North,0,0.0,0.0,61,0.00,,,0.00,Wunderground v.1.15,2013-03-06 03:55:00,
2013-03-05 22:00:00,51.9,39.3,30.15,North,0,0.0,0.0,62,0.00,,,0.00,Wunderground v.1.15,2013-03-06 04:00:00,
2013-03-05 22:10:00,51.4,38.8,30.15,North,0,0.0,0.0,62,0.00,,,0.00,Wunderground v.1.15,2013-03-06 04:10:00,
2013-03-05 22:15:00,51.1,38.9,30.15,North,0,0.0,0.0,63,0.00,,,0.00,Wunderground v.1.15,2013-03-06 04:15:00,
2013-03-05 22:25:00,50.5,38.8,30.15,North,0,0.0,0.0,64,0.00,,,0.00,Wunderground v.1.15,2013-03-06 04:25:00,
2013-03-05 22:30:00,50.2,38.9,30.15,North,0,0.0,0.0,65,0.00,,,0.00,Wunderground v.1.15,2013-03-06 04:30:00,
2013-03-05 22:40:00,49.6,38.7,30.15,North,0,0.0,0.0,66,0.00,,,0.00,Wunderground v.1.15,2013-03-06 04:40:00,
2013-03-05 22:45:00,49.4,38.9,30.15,North,0,0.0,0.0,67,0.00,,,0.00,Wunderground v.1.15,2013-03-06 04:45:00,
2013-03-05 22:55:00,49.2,39.1,30.15,North,359,0.0,0.0,68,0.00,,,0.00,Wunderground v.1.15,2013-03-06 04:55:00,
2013-03-05 23:00:00,48.9,38.8,30.16,North,0,0.0,0.0,68,0.00,,,0.00,Wunderground v.1.15,2013-03-06 05:00:00,
2013-03-05 23:10:00,48.6,38.9,30.16,North,357,0.0,0.0,69,0.00,,,0.00,Wunderground v.1.15,2013-03-06 05:10:00,
2013-03-05 23:15:00,48.5,39.2,30.16,North,357,0.0,0.0,70,0.00,,,0.00,Wunderground v.1.15,2013-03-06 05:15:00,
2013-03-05 23:20:00,48.2,38.9,30.16,North,356,0.0,0.0,70,0.00,,,0.00,Wunderground v.1.15,2013-03-06 05:20:00,
2013-03-05 23:30:00,47.7,38.8,30.17,North,356,0.0,0.0,71,0.00,,,0.00,Wunderground v.1.15,2013-03-06 05:30:00,
2013-03-05 23:35:00,47.4,38.8,30.17,North,356,0.0,0.0,72,0.00,,,0.00,Wunderground v.1.15,2013-03-06 05:35:00,
2013-03-05 23:45:00,46.8,38.2,30.17,North,356,0.0,0.0,72,0.00,,,0.00,Wunderground v.1.15,2013-03-06 05:45:00,
2013-03-05 23:55:00,46.2,38.4,30.17,North,356,0.0,0.0,74,0.00,,,0.00,Wunderground v.1.15,2013-03-06 05:55:00,